CAPE
4336 4854 4785 4579 4568 4769 4926 5079 4958 4360 4099 3931 3874 3832 3926 3414 3094 2372 2704 2672 2400 1850 1487 1288 1121 805 419 612 630 676 864 700 604 558 815 770 789 586 378 313 238 248 252 196 46 28 102 168 247 295 258 229 201 180 104 94 87 66 116 242 210 227 194 222 231 285 300 260 184 59 10 40 74 153 196 180 161 100 70 174 287 367 439 419 318
3865 4856 4781 4501 4579 4724 4699 5084 5050 4648 4272 4112 4144 4190 4001 3714 3438 2934 3076 2826 2181 1771 1411 1092 997 813 578 630 835 828 1081 915 524 642 550 669 720 474 445 477 383 360 420 281 215 163 180 227 370 253 269 242 196 200 97 43 5 13 20 21 62 144 217 182 194 193 221 240 190 157 126 55 36 155 203 194 234 204 188 225 311 388 454 399 268
3397 4666 4920 4689 4643 4706 4698 5092 5113 4793 4403 4134 4001 3874 3910 3610 3477 3125 3112 2547 2135 1847 1556 997 952 865 710 808 810 916 1231 878 729 663 606 590 756 552 526 614 493 353 265 302 255 245 270 344 324 264 222 152 163 200 135 66 43 97 150 196 204 228 267 248 179 206 275 332 346 218 133 189 238 242 245 252 319 297 311 289 199 125 119 184 186
2891 4370 4843 4470 4573 4893 4964 4964 4861 4762 4422 4182 3793 3534 3210 3370 3478 3252 3040 2489 2128 1955 1691 1056 971 948 755 917 968 812 929 903 837 774 593 476 575 999 996 681 504 410 284 348 326 284 294 360 325 191 193 174 156 214 194 164 211 344 305 382 350 438 511 517 527 464 386 412 567 584 438 389 460 357 270 222 184 288 328 318 209 107 83 86 92
2531 4025 4468 4284 4582 4817 4907 4628 4834 4810 4268 3786 3630 3264 2553 2964 3331 3083 2856 2298 2241 1812 1646 1140 1033 1002 902 1098 789 682 806 853 927 650 489 402 653 809 838 639 474 388 358 335 270 349 393 358 267 279 235 166 157 116 85 107 139 195 257 385 432 340 284 323 416 404 489 569 508 614 584 562 555 363 179 108 144 154 182 230 219 230 225 252 136
2046 3381 4286 4121 4428 4724 4756 4711 4858 4473 3860 3558 3381 3060 2468 3157 3246 2970 2668 2330 2254 1832 1548 1015 1098 1406 1469 858 634 1028 844 988 934 556 262 304 642 700 652 532 438 440 357 286 324 354 433 464 423 348 284 216 156 97 94 76 82 160 282 468 566 593 735 905 830 620 705 768 925 1129 894 948 660 214 88 46 60 90 128 187 248 266 244 95 85
2214 2757 4050 3996 4333 4664 4961 4822 4587 4458 4135 3533 3442 3069 2584 2760 2732 2748 2512 2268 2129 1934 1234 1099 1255 1634 996 276 521 1128 684 735 541 503 400 520 711 646 494 448 428 431 314 284 334 361 352 364 401 390 344 246 200 140 70 70 139 304 491 604 639 848 692 520 538 462 406 582 690 658 683 464 206 106 79 40 105 163 168 538 460 121 292 155 271
2240 2398 3691 4330 4535 4867 5020 5146 5168 4746 4017 3922 3773 3289 2864 2250 2054 2495 2601 2111 1749 1630 1187 1209 1510 1609 832 554 1209 1293 992 358 319 597 565 456 518 644 740 582 370 390 372 386 417 290 218 249 144 194 201 240 236 154 106 150 345 409 1024 1253 1162 820 597 571 468 409 465 380 374 408 458 396 319 200 80 78 94 159 178 103 74 100 198 441 466
2823 2600 3576 4571 4911 5234 5605 5447 4937 4678 4218 4148 3776 3532 3322 2784 2151 2059 2672 2407 1780 1440 1479 1561 1723 1508 1510 1398 1442 968 466 219 471 612 515 509 562 660 796 764 499 452 498 570 572 463 354 314 274 248 276 489 459 520 257 968 1390 965 458 384 480 688 763 810 723 596 457 338 326 330 160 130 192 220 125 102 105 70 59 89 111 91 152 231 348
3779 3376 3668 4696 5131 5449 5482 5154 5034 4881 4447 4171 3992 3821 3305 2871 2298 2328 2528 2446 1898 1274 1822 1723 1482 1052 840 1020 674 316 332 412 252 29 238 633 793 701 742 640 650 607 614 674 604 457 478 402 423 432 754 772 1798 1178 834 677 523 676 871 489 636 980 1010 845 725 578 419 276 210 146 47 26 22 86 83 121 117 114 89 120 123 317 406 286 286
3712 3822 4520 4965 5340 5465 5370 5023 4815 4687 4345 4156 4056 3874 3487 3133 3191 3366 2768 2243 1830 1766 1243 1029 1178 990 1419 1196 615 330 182 56 7 0 0 482 732 833 633 648 676 769 795 776 726 690 644 612 655 529 1641 1048 1226 1249 1015 826 644 423 261 122 241 772 580 402 359 372 335 207 114 94 111 106 95 75 66 56 58 90 81 263 394 348 355 268 224
3974 4708 4696 5265 5489 5385 5157 4853 4818 4698 4415 4236 3928 3713 3490 3307 2985 2639 2407 2066 1867 1680 1345 1484 1247 1052 762 422 329 271 222 60 0 0 0 357 550 916 602 669 730 838 830 701 652 672 614 592 559 1040 1161 1920 1669 1627 1361 1132 973 944 762 648 508 359 262 127 163 204 207 198 180 226 261 250 241 217 185 81 149 204 336 240 275 295 312 322 352
4574 4854 5016 5437 5506 5401 5055 4927 4813 4295 4074 3957 3867 3704 3556 3356 3136 2864 2572 2257 2032 2047 1640 1573 1578 1496 1285 676 409 340 392 404 342 63 0 279 434 495 598 620 525 580 493 430 420 468 790 2005 2103 1433 1693 1074 1191 1442 1421 1400 1285 1010 752 701 712 614 460 229 0 404 481 313 195 210 224 150 294 472 606 490 308 303 294 226 279 254 267 290 317
4812 5049 5442 5489 5540 5253 4881 4880 4744 4410 3979 3691 3414 3221 3266 3238 2896 2597 2482 2407 2586 2299 1870 1859 1852 1768 1658 1487 1084 782 555 440 502 345 105 112 287 223 404 352 366 380 420 346 278 492 1815 1120 1534 1897 1647 1498 1271 1312 1300 1496 1619 1640 1475 1037 991 978 793 556 308 0 57 299 514 504 472 524 646 604 219 158 191 196 129 70 105 127 160 220 206
5086 5573 5492 5404 5408 5197 4840 4714 4708 4221 3867 3427 3167 2984 3031 3129 2990 2633 2275 2235 2276 1938 1921 1877 1838 1795 1754 1697 1443 1240 1024 656 646 470 172 53 140 59 488 595 590 508 517 409 400 474 1127 1339 1563 2175 1774 1356 1311 1380 1602 1691 1590 945 670 564 480 608 735 394 505 609 668 416 462 596 364 140 119 78 37 1 0 0 17 37 48 53 30 22 11
5367 5519 5380 5226 5334 5189 4833 4622 4614 4176 3305 3232 3182 3070 2936 3029 2930 2629 2229 1973 1845 1850 1852 1813 1814 1813 1744 1639 1489 1264 831 813 598 576 356 109 36 104 558 1020 964 694 704 649 690 1214 1696 1241 1218 1498 1608 1590 1580 1144 1225 1465 1535 964 648 571 385 341 466 400 255 117 212 118 89 76 33 6 25 0 2 0 0 0 1 8 2 2 4 4 2
5341 5686 5614 5457 5368 5299 4953 4654 4467 4034 3497 3218 3111 3063 3056 2884 2682 2514 2354 1824 1802 1818 1804 1804 1766 1757 1697 1585 1400 1160 1054 783 650 585 454 68 34 416 818 1125 1222 1094 1024 1261 1405 1910 1705 1536 1652 1665 1349 1302 1296 908 665 805 1028 928 538 403 320 318 352 339 246 0 0 0 0 0 0 0 0 0 0 0 0 0 3 20 4 0 2 4 2
5373 5792 5764 5733 5554 5308 4972 4670 4451 4035 3704 3394 3121 2611 2723 2514 2402 2447 2243 1825 1701 1768 1739 1723 1673 1658 1597 1512 1368 1272 1034 1936 749 659 481 270 42 783 1141 1270 1383 1624 1697 1610 1894 1823 1524 1294 1426 1295 1321 1411 1188 802 705 760 749 592 294 222 214 240 250 180 153 133 1 0 0 0 0 0 0 0 0 0 0 0 6 74 55 1 0 3 9
5371 5703 5686 5595 5406 5232 4943 4606 4499 4174 3893 3445 2865 2688 2643 2543 2356 2109 1814 1710 1736 1611 1484 1478 1566 1576 1511 1420 1381 1305 1122 1042 804 703 610 336 294 927 1318 1289 1738 1620 1539 1692 1630 1512 1725 1230 924 939 872 1358 711 652 699 734 632 359 174 132 152 179 210 167 102 114 117 77 285 513 821 249 349 476 443 19 0 0 37 126 169 122 30 17 9
5175 5544 5508 5488 5265 4976 4654 4536 4408 4215 3668 3323 2552 2618 2549 2189 2102 1974 1726 1474 1386 1259 1151 1294 1451 1410 1316 1333 1299 1178 1026 834 742 718 614 439 96 1231 1721 1336 899 1666 1629 1600 1664 1520 1012 823 896 343 282 214 308 483 536 531 287 74 47 46 58 108 229 243 158 71 57 17 12 0 0 0 0 9 5 34 98 642 428 332 425 421 60 2 0
5333 5494 5382 5140 4890 4683 4458 4458 4300 4070 3707 3354 2670 2298 1965 1741 1600 1606 1520 1260 1124 1116 1216 1420 1368 1298 1210 1137 1061 954 862 775 821 736 632 480 258 646 1712 1496 1272 816 1886 1628 1130 610 532 530 675 1101 734 565 400 175 89 0 0 8 39 70 144 0 0 60 63 46 32 10 0 0 0 0 2 5 8 4 0 5 0 0 0 0 0 0 0
5354 5241 5149 4923 4648 4313 4190 4177 4117 3805 3463 3143 2754 2544 2298 2030 1803 1650 1102 1079 966 1170 1216 1314 1242 1146 1058 1000 937 859 769 736 681 696 620 438 138 320 1331 1294 1706 1885 1878 1418 938 684 756 1256 1332 810 593 507 420 330 78 0 0 0 64 0 0 0 0 0 2 1 0 0 0 0 0 0 0 2 0 2 0 0 0 0 0 0 0 0 0
5200 5054 4790 4555 4197 4018 3964 3896 3667 3478 2882 2626 2710 2338 2386 2181 1994 1668 1379 1073 901 1146 1155 1086 1127 1002 936 846 888 820 1244 668 623 578 533 382 254 12 848 1604 1232 1667 1292 876 676 668 584 564 872 493 300 339 429 317 15 0 0 0 0 0 0 0 0 0 0 0 0 0 0 0 1 2 2 3 0 0 0 0 0 0 0 0 0 0 0
4948 4618 4352 4238 3978 3750 3560 3557 3593 3361 2926 2518 2399 2297 2168 2060 1857 1530 1012 996 1046 1110 912 771 751 694 731 1169 1139 1212 682 637 567 490 461 330 22 28 868 871 580 756 688 566 555 639 930 924 501 410 406 418 208 0 0 0 0 0 0 0 0 0 0 0 0 0 0 0 4 12 6 2 2 0 0 0 0 0 0 0 0 0 0 0 0
4386 4113 3995 3850 3687 3550 3402 3289 3168 2995 2593 2418 2625 2423 2173 1914 1600 1183 1021 1039 1088 1058 1085 1142 1168 1124 1092 1031 756 688 996 562 439 476 429 236 0 0 420 340 52 0 298 472 510 423 558 527 406 256 0 0 0 0 0 0 0 0 0 0 0 0 0 0 0 0 0 6 6 4 4 2 0 0 0 0 0 0 0 0 0 0 0 0 0
3688 3657 3559 3383 3057 3067 2896 2768 2709 2611 2448 2439 2473 2328 1974 1516 1391 1219 1018 959 958 1045 1332 1309 1284 1197 1302 1212 844 658 694 448 480 384 98 125 5 0 0 0 0 0 91 233 211 107 186 232 210 25 0 0 0 0 0 4 0 0 0 0 0 0 0 0 0 0 7 5 8 2 0 0 0 0 0 0 0 0 0 0 0 0 0 0 0
3189 3100 3116 3084 2874 2872 2686 2472 2355 2238 2394 2256 2232 2020 1722 1448 1277 1176 1177 1131 1204 1306 1230 1222 1256 1080 806 1261 965 557 608 409 271 24 302 87 0 0 0 0 0 0 0 0 2 0 0 0 0 0 0 0 0 0 0 0 0 0 0 0 0 0 0 1 6 5 3 2 0 0 0 0 0 0 0 0 0 0 0 0 0 0 0 0 0
3250 3217 3114 2828 2539 2316 2428 2333 2266 2188 1843 1535 1654 1773 1347 1062 1050 1184 1263 1319 1426 1262 1096 1068 943 1331 1094 799 935 892 661 722 390 24 10 12 0 0 0 0 0 0 0 2 2 2 0 0 0 0 0 0 0 4 0 0 0 0 6 6 10 15 18 8 0 3 2 0 1 6 1 1 0 0 0 0 0 0 0 0 0 0 0 0 0
3113 2986 2630 2415 2216 2125 2138 1947 2059 1876 1664 1496 1428 1276 1152 1496 1284 872 848 887 917 1286 1450 999 1002 902 1041 706 812 872 836 828 733 328 790 51 0 0 0 0 0 4 63 20 89 60 46 63 156 78 70 9 12 0 2 6 13 12 6 2 5 2 5 13 4 10 17 16 4 0 0 0 0 0 0 0 0 0 0 0 0 0 0 0 0
2834 2452 2165 2030 1974 1900 1570 1378 1730 1598 1316 1108 1132 1131 1041 917 945 896 843 811 658 651 882 1083 736 714 875 1001 1423 934 844 354 794 464 136 0 0 0 0 0 2 52 3 60 218 394 246 141 119 106 84 98 22 0 0 4 12 16 16 12 5 10 14 8 8 2 8 2 0 0 0 0 0 0 0 0 0 0 0 0 0 0 0 0 0
2411 2098 1915 1759 1456 1777 1412 1526 1629 1616 1238 965 1001 913 897 815 750 720 713 669 514 504 686 776 622 706 1391 704 679 10 438 516 339 164 0 0 0 0 0 1 2 0 0 86 133 90 83 70 76 69 13 19 22 6 1 1 0 5 6 8 5 14 11 10 8 2 0 0 0 0 0 0 0 0 0 0 0 0 0 0 0 0 0 0 0
2151 1814 1696 1694 1858 1898 1744 1760 1702 1606 1248 1119 850 788 802 722 660 633 599 493 441 404 604 518 411 586 802 625 423 218 184 114 0 0 0 0 0 0 0 0 0 0 0 0 160 94 94 76 84 35 5 3 5 2 0 6 8 3 3 5 7 11 4 6 0 0 0 0 0 0 0 0 0 0 0 0 0 0 0 0 0 0 0 0 0
1698 1345 1418 1608 1586 1717 1796 1711 1603 1526 1216 1056 831 738 666 698 714 591 504 531 494 316 490 380 415 497 110 0 0 0 0 0 0 0 0 0 0 0 0 0 0 0 0 66 82 75 89 46 3 3 0 1 2 5 10 5 4 3 2 7 2 4 2 3 0 0 0 0 0 0 0 0 0 0 0 0 0 0 0 0 0 0 0 0 0
1520 1549 1369 1310 1328 1286 1342 1376 1258 1670 1166 1028 900 692 673 577 708 730 690 464 139 68 0 0 0 0 0 0 0 0 1 0 6 25 1 0 0 0 0 0 0 0 75 332 4 9 14 0 0 6 6 4 2 0 4 2 4 7 4 8 3 0 2 0 0 0 0 0 0 0 0 0 0 0 0 0 0 0 0 0 0 0 0 0 0
1773 1564 1551 1573 1485 1346 1254 1409 1131 975 916 956 1031 920 772 720 547 393 161 10 0 0 0 0 0 0 0 0 0 0 0 0 0 0 0 0 0 0 0 0 0 0 0 0 0 4 2 3 3 6 7 5 3 2 6 9 7 10 3 4 1 0 0 0 0 0 0 0 0 0 0 0 0 0 0 0 0 0 0 0 0 0 0 0 0
1700 1570 1583 1477 1389 1202 1103 1073 1002 890 920 1002 1068 1024 949 562 466 359 142 0 0 62 26 0 0 0 0 0 0 0 0 0 0 0 0 0 62 52 0 0 0 0 0 0 0 0 0 0 0 5 6 10 4 6 3 6 6 5 1 2 2 0 0 0 0 0 0 0 0 0 0 0 0 0 0 0 0 0 0 0 0 0 0 0 0
1542 1572 1448 1280 1158 1159 1228 1302 1220 1121 868 956 1022 1204 1024 683 562 451 101 24 68 298 2 0 0 0 0 0 0 0 0 0 0 0 0 0 0 0 6 9 2 1 0 2 2 2 2 3 2 3 6 3 6 8 12 14 6 2 0 0 1 1 0 0 0 0 0 0 0 0 0 0 0 0 0 0 0 0 0 0 0 0 0 0 0
982 1148 1178 1117 1160 1309 1480 1318 1133 740 1058 889 1011 1180 924 756 624 196 53 164 364 220 1 0 0 0 0 0 0 0 0 0 0 0 0 0 0 0 12 37 42 122 34 2 8 6 5 3 3 5 2 1 0 8 5 7 6 6 2 2 0 0 0 0 0 0 0 0 0 0 0 0 0 0 0 0 0 0 0 0 0 0 0 0 0
1337 854 713 689 668 826 970 1142 848 816 795 915 815 733 587 536 414 333 331 626 656 449 96 2 0 0 0 0 0 0 0 0 0 0 0 0 0 0 0 10 63 28 4 1 0 2 4 5 6 10 8 0 7 9 4 2 4 6 2 2 0 0 0 0 0 0 0 0 0 0 0 0 0 0 0 0 0 0 0 0 0 0 0 0 0
862 877 654 251 427 506 725 496 408 630 386 395 414 468 562 624 590 380 825 906 735 610 176 54 34 12 0 0 0 0 0 0 0 0 0 0 0 0 0 16 32 4 0 0 3 6 8 3 10 8 5 9 12 2 0 0 0 4 0 0 0 0 0 0 0 0 0 0 0 0 0 0 0 0 0 0 0 0 0 0 0 0 0 0 0
469 430 174 65 228 348 394 191 220 286 196 316 492 412 502 361 295 315 634 726 736 710 464 332 336 157 7 0 0 0 0 0 0 0 0 0 0 0 2 2 0 4 0 2 3 4 8 6 2 1 2 7 3 12 7 1 0 0 0 0 0 0 0 0 0 0 0 0 0 0 0 0 0 0 0 0 0 0 0 0 0 0 0 0 0
664 247 27 234 200 263 241 118 271 364 382 336 345 662 647 482 570 612 760 742 612 594 607 577 639 325 133 0 0 0 0 65 73 94 51 4 6 15 2 7 8 15 6 4 3 0 11 12 4 4 0 2 2 1 6 2 0 0 0 0 0 0 0 0 0 0 0 0 0 0 0 0 0 0 0 0 0 0 0 0 0 0 0 0 0
471 399 380 226 322 448 455 493 406 340 293 226 416 397 323 336 402 490 420 539 462 479 509 520 469 301 276 165 0 0 0 53 212 188 132 36 9 6 3 4 2 1 5 7 0 6 2 6 2 5 5 2 4 3 0 2 3 0 0 0 0 0 0 0 0 0 0 0 0 0 0 0 0 0 0 0 0 0 0 0 0 0 0 0 0
191 136 119 102 110 154 124 106 89 189 404 576 481 426 455 454 421 264 172 199 195 230 299 298 342 134 192 0 0 0 0 18 171 106 14 10 18 14 1 0 0 1 4 6 8 0 0 4 6 3 1 3 6 2 4 1 0 0 0 0 0 0 0 0 0 0 0 0 0 0 0 0 0 0 0 0 0 0 0 0 0 0 0 0 0
72 86 93 122 149 225 394 650 561 663 502 382 243 211 169 252 114 110 91 217 353 368 352 316 146 132 94 7 0 0 0 18 95 97 40 27 30 13 5 12 8 2 2 0 1 1 2 2 5 6 9 1 1 6 3 0 0 0 0 0 0 0 0 0 0 0 0 0 0 0 0 0 0 0 0 0 0 0 0 0 0 0 0 0 0
40 40 61 138 258 320 335 332 220 119 33 24 40 58 56 76 210 170 85 92 179 184 264 324 369 346 224 187 120 26 16 57 154 112 36 34 24 10 14 2 7 7 7 3 4 5 0 6 7 3 8 6 4 6 4 1 0 0 0 0 0 0 0 0 0 0 0 0 0 0 0 0 0 0 0 0 0 0 0 0 0 0 0 0 0
86 156 150 115 91 74 75 26 33 41 80 109 84 123 141 54 56 28 16 15 4 7 6 68 76 37 25 30 37 108 90 74 156 101 84 84 70 16 30 20 9 3 6 5 5 2 9 4 2 0 0 0 0 2 2 6 0 0 0 0 0 0 0 0 0 0 0 0 0 0 0 0 0 0 0 0 0 0 0 0 0 0 0 0 0
24 12 7 24 38 32 20 17 20 10 2 2 4 6 8 14 4 5 8 0 0 0 0 0 0 0 0 2 1 8 36 64 25 30 101 245 180 66 34 45 14 0 0 1 2 4 4 7 10 4 1 0 0 0 0 0 0 0 0 0 0 0 0 0 0 0 0 0 0 0 0 0 0 0 0 0 0 0 0 0 0 0 0 0 0
9 12 6 2 3 4 2 0 0 0 0 0 0 0 0 0 0 0 0 0 0 0 0 0 0 0 0 0 0 2 17 15 10 18 37 62 150 68 41 23 6 1 0 3 3 2 3 8 6 3 0 0 0 0 0 0 0 0 0 0 0 0 0 0 0 0 0 0 0 0 0 0 0 0 0 0 0 0 0 0 0 0 0 0 0
5 4 1 1 0 0 0 0 0 1 0 0 0 0 0 0 0 0 1 2 0 0 0 0 0 0 0 1 0 2 2 4 11 16 19 42 94 54 13 6 2 10 1 5 7 0 6 6 12 14 6 2 0 0 0 0 0 0 0 0 0 0 0 0 0 0 0 0 0 0 0 0 0 0 0 0 0 0 0 0 0 0 0 0 0
0 0 0 4 2 3 1 0 0 0 0 0 6 4 4 2 0 0 0 0 0 0 0 0 0 0 0 2 7 9 8 10 7 3 14 16 23 23 21 11 6 11 6 6 5 1 1 10 8 8 4 4 4 4 0 0 0 0 0 0 0 0 0 0 0 0 0 0 0 0 0 0 0 0 0 0 0 0 0 0 0 0 0 0 0
Wind_Speed
19 19 19 18 19 18 17 16 17 17 17 18 19 19 19 21 23 22 24 25 28 30 32 33 34 36 38 39 40 41 43 43 43 43 43 44 41 34 29 29 29 28 28 25 nan nan 28 29 30 29 29 29 30 28 27 nan nan nan 29 27 26 26 26 26 22 19 17 20 22 nan nan nan nan 37 37 37 36 nan nan 42 41 40 40 40 41
18 19 19 18 18 17 17 17 17 17 19 21 21 21 20 22 24 25 29 30 30 32 35 34 34 36 37 38 38 40 42 45 45 45 46 45 42 35 29 28 27 26 26 26 27 28 28 29 29 30 30 30 29 28 nan nan nan nan nan nan nan 28 30 28 25 22 19 22 24 27 29 nan nan 38 38 36 37 39 40 40 41 40 41 42 43
17 18 18 16 16 16 16 16 17 19 20 21 22 22 23 25 27 30 33 32 31 32 35 35 35 36 36 38 39 40 41 44 46 47 47 42 38 33 28 27 28 26 26 26 27 28 29 29 29 30 31 29 29 29 30 nan nan nan 29 29 29 30 30 30 28 24 22 23 26 28 32 34 36 38 37 36 38 40 39 39 39 41 43 43 44
18 18 16 15 15 16 16 17 19 20 21 21 23 25 27 29 30 32 33 31 30 31 35 36 37 38 39 39 40 39 42 44 44 45 45 39 32 27 24 26 28 28 26 26 27 29 29 29 30 30 29 28 28 30 31 31 31 30 29 30 32 31 31 30 28 26 26 24 28 30 34 36 40 41 38 37 38 38 38 39 39 40 nan nan nan
19 18 17 17 16 16 17 18 19 21 22 23 26 29 29 31 30 32 33 32 32 33 35 35 37 40 40 40 41 41 44 46 48 45 38 31 26 24 24 26 29 30 29 28 27 28 28 29 30 31 30 28 28 30 nan 30 30 30 30 32 33 32 32 30 28 27 26 26 28 33 35 37 41 41 39 37 38 37 38 39 39 40 41 40 39
21 19 17 17 17 19 19 19 21 23 25 26 28 30 30 30 30 31 34 34 34 34 36 36 38 41 41 42 42 43 44 46 44 35 27 24 23 25 26 28 29 31 32 30 29 29 29 29 29 30 29 29 30 nan nan nan nan 30 30 32 33 32 30 29 28 27 27 30 32 33 37 39 41 40 nan nan nan nan 38 39 40 40 40 nan nan
20 19 19 18 18 20 21 21 23 26 27 27 27 29 31 33 33 33 33 35 36 36 37 40 39 41 42 42 44 45 44 39 31 24 22 26 27 26 27 30 29 30 30 29 29 29 29 30 30 31 30 30 29 30 nan nan 30 30 30 31 32 32 29 27 26 27 30 33 35 37 39 40 39 37 nan nan 37 38 37 38 39 39 39 38 38
20 18 20 19 19 20 21 24 26 26 28 29 29 30 31 32 32 32 32 35 38 39 40 43 43 42 41 40 43 45 42 35 28 27 29 31 30 28 28 29 29 29 28 28 28 28 29 30 30 33 34 33 31 31 30 31 33 32 33 32 31 29 27 28 28 30 32 34 37 39 40 38 38 38 nan nan nan 40 41 40 nan 35 35 37 37
20 19 20 19 19 21 23 24 24 27 30 31 30 30 32 33 34 34 35 35 37 40 42 44 45 45 43 40 41 41 39 35 32 33 33 32 32 32 32 32 30 29 29 28 29 29 29 29 30 31 34 36 33 32 32 38 39 37 34 30 27 28 28 29 31 32 34 36 37 39 37 37 39 40 39 40 40 nan nan nan 36 nan 34 34 35
20 19 20 20 20 22 24 25 27 30 30 29 29 31 33 35 35 36 38 39 39 41 43 44 47 48 46 43 40 37 36 35 35 nan 35 33 33 32 34 35 33 32 31 29 28 28 28 31 32 33 33 36 44 45 40 39 39 36 32 29 28 30 32 31 31 33 37 38 36 35 nan nan nan nan nan 39 39 39 nan 38 35 34 33 32 33
21 20 19 21 22 24 26 27 28 30 30 29 29 30 32 32 33 36 39 41 42 43 44 45 47 50 49 46 42 37 35 nan nan nan nan 31 31 33 36 37 36 35 33 31 30 29 30 32 32 36 45 47 43 43 40 38 35 32 30 28 29 33 33 31 31 34 36 36 34 nan 35 35 nan nan nan nan nan nan nan 38 35 33 32 31 30
21 20 21 23 25 26 27 29 29 29 30 30 31 32 32 33 34 36 38 41 42 44 46 47 47 50 48 46 42 37 35 nan nan nan nan 31 31 35 37 38 38 38 36 33 33 33 33 34 34 42 46 48 46 42 39 36 32 31 31 30 29 31 32 32 34 35 35 34 32 34 35 37 39 40 40 nan 39 38 37 35 34 32 30 30 31
22 23 25 27 27 28 29 30 30 31 31 31 32 34 35 37 38 40 41 43 43 45 47 48 48 49 49 46 41 38 34 37 36 nan nan 35 35 34 35 36 36 37 36 34 34 34 37 40 41 44 47 51 46 41 38 38 38 39 34 29 30 31 32 35 nan 36 35 34 32 33 35 36 37 40 41 41 40 36 36 34 33 31 30 29 30
25 26 29 30 30 31 32 32 32 32 32 32 33 35 37 39 41 42 44 45 46 47 48 48 47 47 46 44 40 37 34 37 36 35 37 39 40 38 32 31 32 33 34 33 33 36 45 40 38 41 44 46 44 43 40 40 44 42 36 34 33 33 35 35 35 nan nan 36 36 34 36 38 39 40 40 40 39 36 34 nan 28 28 28 26 25
28 29 31 32 32 33 33 33 33 33 33 33 33 34 37 39 42 44 46 47 49 50 50 49 47 46 44 41 39 36 33 40 39 38 40 nan 41 nan 33 30 30 32 33 34 34 35 44 40 40 38 41 43 45 47 44 44 51 44 34 30 28 27 29 34 37 39 40 41 39 37 35 35 38 nan nan nan nan nan nan nan nan nan nan nan nan
29 30 32 32 33 34 35 35 36 35 33 34 35 34 35 38 42 45 47 50 51 51 50 48 47 45 42 40 38 37 35 44 41 41 42 41 nan 37 33 31 32 33 34 35 36 38 44 43 43 42 42 42 45 45 44 44 43 38 31 33 33 28 29 32 37 37 36 35 nan nan nan nan nan nan nan nan nan nan nan nan nan nan nan nan nan
32 33 34 34 34 36 37 39 38 38 37 37 37 37 38 39 41 45 49 52 54 53 52 50 46 45 44 41 39 38 37 46 46 43 42 nan nan 36 35 34 35 36 36 36 38 42 42 44 47 47 44 42 43 45 45 39 31 29 32 35 32 28 29 31 40 nan nan nan nan nan nan nan nan nan nan nan nan nan nan nan nan nan nan nan nan
36 37 36 36 37 38 40 41 41 40 41 40 41 41 42 42 43 47 49 51 52 52 51 49 49 48 46 44 42 39 37 45 46 43 42 44 nan 37 36 36 36 37 37 39 41 42 43 47 50 47 45 43 50 47 41 35 34 38 37 33 29 29 30 31 33 40 nan nan nan nan nan nan nan nan nan nan nan nan nan nan nan nan nan nan nan
40 40 39 39 40 42 43 44 44 43 43 43 43 45 45 45 45 49 50 50 49 49 47 46 48 48 47 45 43 40 34 42 46 43 42 44 41 38 39 36 36 35 37 40 41 42 45 49 50 46 42 46 50 44 39 38 41 41 36 32 31 31 31 30 33 33 35 nan 40 41 41 42 42 41 40 nan nan nan nan 34 30 29 nan nan nan
43 43 43 44 44 46 46 47 47 47 46 45 45 46 45 44 46 49 49 49 48 49 49 46 48 50 49 43 39 36 32 37 45 45 42 44 nan 41 39 34 32 37 39 41 42 45 46 45 46 44 46 49 46 43 41 43 43 nan nan nan nan 32 35 36 35 nan nan nan nan nan nan nan nan nan nan nan nan 40 39 35 31 29 nan nan nan
46 46 46 48 48 49 49 50 51 51 50 49 49 47 45 45 47 50 50 49 49 50 49 44 45 47 45 40 35 32 32 30 41 46 44 46 47 41 39 34 35 38 42 42 43 45 45 44 42 47 49 47 45 45 nan nan nan nan nan nan 38 nan nan nan nan nan nan nan nan nan nan nan nan nan nan nan nan nan nan nan nan nan nan nan nan
50 50 50 51 51 51 52 52 52 53 52 50 50 47 46 47 49 52 51 50 51 52 48 44 44 44 42 39 36 34 32 31 43 45 48 48 47 36 34 38 40 43 43 41 42 43 44 46 45 51 52 48 48 51 nan nan nan nan nan nan nan nan nan nan nan nan nan nan nan nan nan nan nan nan nan nan nan nan nan nan nan nan nan nan nan
53 53 53 53 52 53 54 56 54 55 53 51 48 48 49 50 53 55 53 51 50 50 48 46 44 43 42 41 41 40 42 44 52 47 47 47 45 nan 34 41 46 43 41 42 44 44 43 44 51 58 56 54 54 55 nan nan nan nan nan nan nan nan nan nan nan nan nan nan nan nan nan nan nan nan nan nan nan nan nan nan nan nan nan nan nan
55 55 55 55 55 55 57 58 57 54 51 49 50 51 52 52 52 53 53 49 49 49 48 46 44 43 41 42 43 46 46 46 49 52 49 51 nan nan 39 48 46 40 40 43 44 43 44 48 53 59 58 56 57 nan nan nan nan nan nan nan nan nan nan nan nan nan nan nan nan nan nan nan nan nan nan nan nan nan nan nan nan nan nan nan nan
57 57 57 58 57 56 57 56 53 48 47 48 53 54 54 52 52 51 52 49 48 47 47 46 46 44 43 44 46 48 49 49 47 47 51 48 nan nan 44 49 nan nan 46 44 44 45 52 58 58 56 nan nan nan nan nan nan nan nan nan nan nan nan nan nan nan nan nan nan nan nan nan nan nan nan nan nan nan nan nan nan nan nan nan nan nan
59 59 61 61 55 50 49 49 48 46 48 49 51 51 51 51 50 50 49 49 48 46 45 45 44 44 46 47 49 51 51 49 47 47 nan 47 nan nan nan nan nan nan nan 48 54 57 59 60 59 nan nan nan nan nan nan nan nan nan nan nan nan nan nan nan nan nan nan nan nan nan nan nan nan nan nan nan nan nan nan nan nan nan nan nan nan
62 63 65 63 55 46 44 45 47 49 51 51 50 49 51 50 51 49 49 49 49 47 47 47 47 47 49 51 53 54 51 50 50 nan 45 nan nan nan nan nan nan nan nan nan nan nan nan nan nan nan nan nan nan nan nan nan nan nan nan nan nan nan nan nan nan nan nan nan nan nan nan nan nan nan nan nan nan nan nan nan nan nan nan nan nan
62 64 65 62 55 50 46 47 48 51 52 51 50 51 51 50 50 50 50 49 48 47 46 46 48 50 51 53 53 53 51 50 48 nan nan nan nan nan nan nan nan nan nan nan nan nan nan nan nan nan nan nan nan nan nan nan nan nan nan nan nan nan nan nan nan nan nan nan nan nan nan nan nan nan nan nan nan nan nan nan nan nan nan nan nan
58 60 60 58 57 54 50 47 48 53 54 53 52 49 46 48 50 53 54 51 49 48 47 50 50 51 54 54 54 52 49 48 46 48 51 nan nan nan nan nan nan nan nan nan nan nan nan nan 49 nan nan nan nan nan nan nan nan nan nan nan nan nan nan nan nan nan nan nan nan nan nan nan nan nan nan nan nan nan nan nan nan nan nan nan nan
56 57 57 56 56 53 50 49 53 54 55 54 55 54 55 58 53 53 56 53 54 54 53 51 49 51 54 52 51 52 49 49 59 62 61 nan nan nan nan nan nan nan nan nan 46 46 44 44 43 43 nan nan nan nan nan nan nan nan nan nan nan nan nan nan nan nan nan nan nan nan nan nan nan nan nan nan nan nan nan nan nan nan nan nan nan
56 58 57 55 55 53 52 53 54 54 55 54 55 57 58 59 61 59 58 55 55 56 55 53 53 51 54 56 55 nan 57 62 62 62 nan nan nan nan nan nan nan nan nan nan 44 nan nan nan nan nan nan nan nan nan nan nan nan nan nan nan nan nan nan nan nan nan nan nan nan nan nan nan nan nan nan nan nan nan nan nan nan nan nan nan nan
60 58 54 56 54 52 55 56 56 57 56 55 56 57 58 59 57 57 56 58 58 56 53 53 54 57 58 57 56 54 54 59 nan nan nan nan nan nan nan nan nan nan nan nan 42 nan nan nan nan nan nan nan nan nan nan nan nan nan nan nan nan nan nan nan nan nan nan nan nan nan nan nan nan nan nan nan nan nan nan nan nan nan nan nan nan
61 54 56 56 54 55 58 57 56 57 57 57 58 58 57 56 57 55 54 57 60 58 57 55 55 55 56 nan nan nan nan nan nan nan nan nan nan nan nan nan nan nan nan nan nan nan nan nan nan nan nan nan nan nan nan nan nan nan nan nan nan nan nan nan nan nan nan nan nan nan nan nan nan nan nan nan nan nan nan nan nan nan nan nan nan
60 56 54 55 57 56 57 56 56 58 57 57 58 57 55 55 56 56 55 54 55 nan nan nan nan nan nan nan nan nan nan nan nan nan nan nan nan nan nan nan nan nan nan 39 nan nan nan nan nan nan nan nan nan nan nan nan nan nan nan nan nan nan nan nan nan nan nan nan nan nan nan nan nan nan nan nan nan nan nan nan nan nan nan nan nan
57 57 58 57 56 55 55 55 55 57 57 57 57 56 57 56 55 54 53 nan nan nan nan nan nan nan nan nan nan nan nan nan nan nan nan nan nan nan nan nan nan nan nan nan nan nan nan nan nan nan nan nan nan nan nan nan nan nan nan nan nan nan nan nan nan nan nan nan nan nan nan nan nan nan nan nan nan nan nan nan nan nan nan nan nan
56 56 56 56 54 53 55 55 55 56 56 56 55 56 56 56 54 53 53 nan nan nan nan nan nan nan nan nan nan nan nan nan nan nan nan nan nan nan nan nan nan nan nan nan nan nan nan nan nan nan nan nan nan nan nan nan nan nan nan nan nan nan nan nan nan nan nan nan nan nan nan nan nan nan nan nan nan nan nan nan nan nan nan nan nan
54 55 54 54 53 54 54 55 54 55 55 54 54 54 54 53 52 52 52 nan nan 54 nan nan nan nan nan nan nan nan nan nan nan nan nan nan nan nan nan nan nan nan nan nan nan nan nan nan nan nan nan nan nan nan nan nan nan nan nan nan nan nan nan nan nan nan nan nan nan nan nan nan nan nan nan nan nan nan nan nan nan nan nan nan nan
53 53 52 52 53 55 54 54 56 56 52 51 51 51 52 52 52 52 nan 53 55 55 nan nan nan nan nan nan nan nan nan nan nan nan nan nan nan nan nan nan nan 37 nan nan nan nan nan nan nan nan nan nan nan nan nan nan nan nan nan nan nan nan nan nan nan nan nan nan nan nan nan nan nan nan nan nan nan nan nan nan nan nan nan nan nan
54 57 57 54 53 52 52 53 52 50 50 50 51 50 51 52 51 52 51 53 53 53 nan nan nan nan nan nan nan nan nan nan nan nan nan nan nan nan nan nan nan nan nan nan nan nan nan nan nan nan nan nan nan nan nan nan nan nan nan nan nan nan nan nan nan nan nan nan nan nan nan nan nan nan nan nan nan nan nan nan nan nan nan nan nan
52 52 52 50 49 49 50 50 49 49 49 48 48 49 50 49 50 51 51 51 52 53 53 nan nan nan nan nan nan nan nan nan nan nan nan nan nan nan nan nan nan nan nan nan nan nan nan nan nan nan nan nan nan nan nan nan nan nan nan nan nan nan nan nan nan nan nan nan nan nan nan nan nan nan nan nan nan nan nan nan nan nan nan nan nan
50 51 50 nan 49 48 49 49 48 48 48 47 47 46 47 48 48 49 49 50 51 51 50 49 48 49 nan nan nan nan nan nan nan nan nan nan nan nan nan nan nan nan nan nan nan nan nan nan nan nan nan nan nan nan nan nan nan nan nan nan nan nan nan nan nan nan nan nan nan nan nan nan nan nan nan nan nan nan nan nan nan nan nan nan nan
48 48 nan 48 49 47 48 47 48 48 47 47 47 47 48 48 48 48 48 48 48 46 45 45 43 44 46 nan nan nan nan nan nan nan nan nan nan nan nan nan nan nan nan nan nan nan nan nan nan nan nan nan nan nan nan nan nan nan nan nan nan nan nan nan nan nan nan nan nan nan nan nan nan nan nan nan nan nan nan nan nan nan nan nan nan
48 48 49 49 47 47 48 48 47 47 47 47 47 46 45 45 46 46 45 44 44 42 40 39 38 39 38 40 nan nan nan nan 30 29 27 nan nan nan nan nan nan nan nan nan nan nan nan nan nan nan nan nan nan nan nan nan nan nan nan nan nan nan nan nan nan nan nan nan nan nan nan nan nan nan nan nan nan nan nan nan nan nan nan nan nan
48 48 48 47 47 46 46 46 nan 46 47 47 46 44 42 42 41 40 40 39 38 36 35 34 39 38 38 nan nan nan nan nan 25 24 nan nan nan nan nan nan nan nan nan nan nan nan nan nan nan nan nan nan nan nan nan nan nan nan nan nan nan nan nan nan nan nan nan nan nan nan nan nan nan nan nan nan nan nan nan nan nan nan nan nan nan
nan nan nan 45 45 45 45 46 46 46 45 42 39 39 37 37 36 36 nan 35 36 33 33 34 40 40 nan nan nan nan nan nan nan nan nan nan nan nan nan nan nan nan nan nan nan nan nan nan nan nan nan nan nan nan nan nan nan nan nan nan nan nan nan nan nan nan nan nan nan nan nan nan nan nan nan nan nan nan nan nan nan nan nan nan nan
nan nan nan 43 44 43 43 42 41 39 nan nan nan nan nan nan 33 34 nan nan 34 34 34 34 35 35 34 32 28 nan nan nan 21 21 nan nan nan nan nan nan nan nan nan nan nan nan nan nan nan nan nan nan nan nan nan nan nan nan nan nan nan nan nan nan nan nan nan nan nan nan nan nan nan nan nan nan nan nan nan nan nan nan nan nan nan
nan 41 41 40 nan nan nan nan nan nan nan 34 nan 33 33 nan nan nan nan nan nan nan nan nan nan nan nan nan nan 21 nan nan 19 18 nan nan nan nan nan nan nan nan nan nan nan nan nan nan nan nan nan nan nan nan nan nan nan nan nan nan nan nan nan nan nan nan nan nan nan nan nan nan nan nan nan nan nan nan nan nan nan nan nan nan nan
nan nan nan nan nan nan nan nan nan nan nan nan nan nan nan nan nan nan nan nan nan nan nan nan nan nan nan nan nan nan nan nan nan nan 13 12 13 nan nan nan nan nan nan nan nan nan nan nan nan nan nan nan nan nan nan nan nan nan nan nan nan nan nan nan nan nan nan nan nan nan nan nan nan nan nan nan nan nan nan nan nan nan nan nan nan
nan nan nan nan nan nan nan nan nan nan nan nan nan nan nan nan nan nan nan nan nan nan nan nan nan nan nan nan nan nan nan nan nan nan nan nan 14 nan nan nan nan nan nan nan nan nan nan nan nan nan nan nan nan nan nan nan nan nan nan nan nan nan nan nan nan nan nan nan nan nan nan nan nan nan nan nan nan nan nan nan nan nan nan nan nan
nan nan nan nan nan nan nan nan nan nan nan nan nan nan nan nan nan nan nan nan nan nan nan nan nan nan nan nan nan nan nan nan nan nan nan nan nan nan nan nan nan nan nan nan nan nan nan nan nan nan nan nan nan nan nan nan nan nan nan nan nan nan nan nan nan nan nan nan nan nan nan nan nan nan nan nan nan nan nan nan nan nan nan nan nan
nan nan nan nan nan nan nan nan nan nan nan nan nan nan nan nan nan nan nan nan nan nan nan nan nan nan nan nan nan nan nan nan nan nan nan nan nan nan nan nan nan nan nan nan nan nan nan nan nan nan nan nan nan nan nan nan nan nan nan nan nan nan nan nan nan nan nan nan nan nan nan nan nan nan nan nan nan nan nan nan nan nan nan nan nan
Wind_Direction
292 287 285 289 294 299 301 304 310 310 313 313 314 318 317 316 314 315 313 316 317 320 320 321 323 325 327 327 328 327 325 324 322 318 315 315 318 317 308 300 300 294 292 293 nan nan 288 290 291 290 289 291 294 296 297 nan nan nan 296 295 293 293 296 297 297 297 299 299 302 nan nan nan nan 316 314 309 303 nan nan 297 296 294 292 290 289
294 290 290 290 297 298 302 303 306 305 313 316 322 320 315 313 314 318 321 320 320 322 323 325 328 329 330 328 328 327 324 322 321 319 319 316 315 314 306 293 290 291 290 293 293 291 291 293 293 294 295 296 298 300 nan nan nan nan nan nan nan 295 298 299 297 295 297 299 305 306 309 nan nan 314 309 301 297 295 294 293 292 290 288 287 287
304 295 298 297 300 298 299 302 304 311 319 321 328 323 317 320 322 326 326 326 325 324 327 329 328 329 330 329 329 326 323 321 320 319 319 318 315 315 307 293 289 292 296 296 295 294 295 295 296 296 296 298 299 301 302 nan nan nan 296 296 296 296 297 297 294 292 293 299 304 305 306 308 312 309 302 296 294 294 292 290 289 287 287 287 288
319 313 308 305 303 299 300 302 311 315 320 319 326 326 326 329 330 328 327 326 329 330 329 328 326 327 330 328 327 326 323 321 319 317 319 320 317 314 305 295 291 293 296 297 296 295 296 297 298 297 296 298 301 302 302 301 299 298 296 295 295 296 295 294 292 289 291 297 302 303 303 305 307 305 300 296 296 292 290 287 287 287 nan nan nan
331 326 318 315 310 304 309 310 312 317 321 322 333 338 338 334 336 337 330 330 332 331 326 325 325 327 328 328 328 328 326 322 320 318 315 316 319 315 308 304 301 298 297 297 294 291 293 296 298 300 303 304 302 300 nan 301 300 298 296 295 295 293 293 290 286 287 292 299 302 303 302 303 304 303 300 296 294 293 291 290 288 288 288 288 289
335 328 318 318 312 313 312 311 316 322 325 331 343 347 341 336 341 342 335 334 336 335 329 328 328 328 328 329 329 328 327 327 326 324 319 315 315 313 308 307 303 299 299 299 295 292 293 297 298 300 303 305 302 nan nan nan nan 299 298 295 293 292 291 289 287 290 296 299 298 298 301 301 300 299 nan nan nan nan 290 291 292 291 291 nan nan
326 325 317 320 312 312 312 312 315 323 324 331 341 344 340 339 345 347 342 340 339 339 337 334 332 332 331 330 329 329 330 331 332 334 326 319 316 312 309 307 303 299 299 299 295 293 294 296 298 300 303 304 301 297 nan nan 297 297 296 293 292 291 287 284 287 292 295 295 297 300 301 301 300 297 nan nan 293 293 291 291 292 292 292 291 292
322 318 310 310 310 310 310 313 318 322 323 330 340 344 341 339 342 342 342 341 337 336 336 335 333 332 331 330 327 325 327 328 329 325 321 319 317 313 309 307 305 303 301 298 295 293 294 295 298 301 303 303 301 297 298 296 295 295 294 291 289 288 286 286 289 291 293 296 300 300 300 299 299 300 nan nan nan 295 297 296 nan 293 291 291 294
318 316 306 307 304 305 306 310 312 317 325 334 340 340 338 337 337 339 339 337 332 332 333 334 333 331 329 327 324 322 323 323 318 315 315 317 317 316 314 310 307 304 302 299 297 295 292 290 290 296 299 301 300 297 295 289 291 292 290 288 284 281 280 285 291 293 296 300 301 300 299 298 298 297 295 294 294 nan nan nan 297 nan 293 293 296
309 310 309 303 301 303 306 307 312 318 326 337 338 334 335 334 334 335 334 333 329 327 328 330 330 328 327 324 321 319 319 315 316 nan 315 313 316 314 313 311 307 304 302 299 295 294 295 293 293 294 296 291 290 291 290 291 296 298 296 291 282 279 280 283 288 294 297 298 298 295 nan nan nan nan nan 295 296 298 nan 298 297 294 293 295 298
309 307 302 301 298 301 305 309 316 325 331 335 335 332 331 328 323 319 322 325 324 322 324 325 324 323 323 320 320 319 316 nan nan nan nan 317 315 317 316 311 306 302 301 299 295 294 294 295 294 294 284 281 284 286 289 292 294 299 304 303 290 284 286 291 294 295 294 293 293 nan 296 296 nan nan nan nan nan nan nan 296 295 294 294 294 296
308 299 297 295 297 303 306 312 319 324 326 330 332 329 325 321 319 318 318 321 319 318 319 318 318 317 318 319 319 319 316 nan nan nan nan 317 317 317 317 312 306 302 299 298 298 296 296 298 300 292 289 287 287 287 288 290 293 297 299 300 298 296 300 305 304 299 294 293 294 295 296 297 294 294 296 nan 295 295 296 296 295 295 295 297 298
298 295 294 295 300 303 307 313 319 320 322 324 323 323 321 318 318 319 320 317 315 312 311 311 311 312 315 317 317 315 314 314 314 nan nan 317 318 316 313 311 307 302 298 298 298 297 291 287 289 289 286 289 290 290 289 289 292 296 299 299 294 299 309 317 nan 306 298 300 298 297 298 296 295 296 295 295 296 298 296 296 294 295 295 297 299
295 296 295 297 299 303 308 314 317 316 316 314 317 319 320 319 318 317 316 316 312 309 307 306 305 308 309 311 311 312 314 309 315 314 314 316 317 314 313 310 306 300 296 293 292 291 289 294 290 289 289 290 290 290 291 293 293 291 291 291 294 304 313 319 317 nan nan 301 300 299 300 299 299 299 299 299 299 298 296 nan 294 294 295 298 295
295 295 295 296 298 302 308 313 315 316 314 313 311 315 316 314 313 312 313 314 312 310 308 306 305 306 307 309 310 312 311 311 317 318 315 nan 317 nan 310 308 304 300 296 293 292 293 292 296 301 299 296 298 297 295 293 294 293 291 291 296 303 305 305 302 303 304 304 303 305 308 307 304 304 nan nan nan nan nan nan nan nan nan nan nan nan
298 297 298 301 304 306 309 311 311 313 314 312 312 314 313 310 310 310 311 310 310 311 310 308 306 306 307 308 310 311 309 306 316 317 315 314 nan 305 309 308 306 302 298 298 297 294 293 298 301 303 301 303 298 295 295 296 296 294 302 316 322 316 302 298 298 297 299 300 nan nan nan nan nan nan nan nan nan nan nan nan nan nan nan nan nan
296 296 299 304 308 308 309 308 309 310 310 308 309 307 303 307 311 312 313 311 311 312 312 312 308 306 307 308 310 310 308 305 313 318 316 nan nan 307 310 309 306 303 299 299 299 295 294 295 298 299 301 300 298 299 299 299 301 308 316 321 319 312 305 298 304 nan nan nan nan nan nan nan nan nan nan nan nan nan nan nan nan nan nan nan nan
292 294 296 300 303 305 305 304 304 305 303 305 302 301 301 303 308 310 313 313 312 312 311 310 307 304 306 308 309 309 307 304 312 315 313 311 nan 309 308 307 305 300 299 299 298 298 297 301 299 298 297 296 296 296 292 295 306 315 318 319 316 311 306 301 296 299 nan nan nan nan nan nan nan nan nan nan nan nan nan nan nan nan nan nan nan
289 291 293 295 298 299 299 299 299 299 299 299 299 299 301 301 304 306 309 309 311 311 311 308 306 306 308 310 310 314 313 304 310 312 313 314 311 308 307 305 302 300 299 300 301 301 300 301 302 301 299 294 297 294 293 301 312 316 316 315 315 314 309 301 298 296 295 nan 306 307 309 313 313 313 316 nan nan nan nan 317 313 305 nan nan nan
286 288 290 292 292 293 293 294 294 293 294 294 297 299 299 301 304 305 306 306 309 312 310 308 306 305 305 306 307 309 309 301 310 316 317 316 nan 307 302 301 302 301 302 303 304 301 301 304 306 310 302 296 296 297 303 312 315 nan nan nan nan 313 298 297 297 nan nan nan nan nan nan nan nan nan nan nan nan 313 315 315 312 307 nan nan nan
284 286 287 288 289 290 289 290 291 291 292 294 296 297 297 300 304 303 304 305 306 308 309 308 307 308 310 310 311 313 307 310 308 316 316 316 316 306 298 295 298 303 301 300 303 304 305 306 304 303 298 292 295 303 nan nan nan nan nan nan 305 nan nan nan nan nan nan nan nan nan nan nan nan nan nan nan nan nan nan nan nan nan nan nan nan
282 283 285 285 286 287 287 288 288 287 291 295 297 296 297 301 304 305 304 303 304 307 309 307 306 308 311 312 312 312 313 320 304 315 316 308 303 308 300 297 297 302 302 304 306 304 304 303 301 294 292 292 299 310 nan nan nan nan nan nan nan nan nan nan nan nan nan nan nan nan nan nan nan nan nan nan nan nan nan nan nan nan nan nan nan
280 281 282 283 285 286 285 286 286 288 292 297 301 300 299 301 302 301 300 301 304 308 308 307 306 308 308 307 305 305 295 297 306 306 304 310 319 nan 303 296 299 304 304 303 303 304 304 304 296 295 291 293 303 312 nan nan nan nan nan nan nan nan nan nan nan nan nan nan nan nan nan nan nan nan nan nan nan nan nan nan nan nan nan nan nan
276 277 278 280 281 282 282 284 285 290 296 300 301 301 302 301 300 299 298 301 306 307 307 307 305 306 307 304 303 299 298 298 302 307 312 317 nan nan 299 297 300 298 297 298 301 304 304 299 295 294 289 293 303 nan nan nan nan nan nan nan nan nan nan nan nan nan nan nan nan nan nan nan nan nan nan nan nan nan nan nan nan nan nan nan nan
273 275 277 277 278 281 285 286 287 291 298 301 299 300 301 301 300 300 298 302 304 303 303 304 304 304 304 304 302 302 303 304 306 309 309 308 nan nan 295 295 nan nan 300 302 297 290 288 289 292 290 nan nan nan nan nan nan nan nan nan nan nan nan nan nan nan nan nan nan nan nan nan nan nan nan nan nan nan nan nan nan nan nan nan nan nan
274 275 274 273 277 285 291 296 296 296 298 298 299 298 300 301 300 299 300 303 303 302 302 302 302 300 300 302 302 304 305 304 302 301 nan 305 nan nan nan nan nan nan nan 293 294 295 291 290 292 nan nan nan nan nan nan nan nan nan nan nan nan nan nan nan nan nan nan nan nan nan nan nan nan nan nan nan nan nan nan nan nan nan nan nan nan
273 274 275 277 282 285 287 292 296 297 296 296 296 297 298 296 296 300 302 302 302 302 301 301 300 300 301 300 302 305 307 306 304 nan 305 nan nan nan nan nan nan nan nan nan nan nan nan nan nan nan nan nan nan nan nan nan nan nan nan nan nan nan nan nan nan nan nan nan nan nan nan nan nan nan nan nan nan nan nan nan nan nan nan nan nan
273 276 280 282 283 282 282 285 293 295 295 297 296 296 297 298 299 300 301 300 300 300 300 300 299 299 301 301 304 306 307 307 307 nan nan nan nan nan nan nan nan nan nan nan nan nan nan nan nan nan nan nan nan nan nan nan nan nan nan nan nan nan nan nan nan nan nan nan nan nan nan nan nan nan nan nan nan nan nan nan nan nan nan nan nan
273 277 282 285 283 282 285 291 292 291 292 285 279 279 285 292 297 292 280 281 283 287 293 297 297 297 299 301 304 307 307 309 309 304 303 nan nan nan nan nan nan nan nan nan nan nan nan nan 291 nan nan nan nan nan nan nan nan nan nan nan nan nan nan nan nan nan nan nan nan nan nan nan nan nan nan nan nan nan nan nan nan nan nan nan nan
276 278 281 283 283 285 289 292 290 292 293 291 287 285 282 279 277 284 285 281 280 280 280 288 291 298 298 300 300 304 307 305 296 297 299 nan nan nan nan nan nan nan nan nan 300 297 292 288 290 292 nan nan nan nan nan nan nan nan nan nan nan nan nan nan nan nan nan nan nan nan nan nan nan nan nan nan nan nan nan nan nan nan nan nan nan
274 277 280 282 285 289 290 290 290 292 292 294 293 291 289 281 276 276 281 283 281 280 281 282 281 284 298 300 292 nan 290 293 296 295 nan nan nan nan nan nan nan nan nan nan 292 nan nan nan nan nan nan nan nan nan nan nan nan nan nan nan nan nan nan nan nan nan nan nan nan nan nan nan nan nan nan nan nan nan nan nan nan nan nan nan nan
273 275 278 278 279 285 285 287 290 289 290 289 291 293 291 289 285 278 279 282 281 280 280 281 282 283 283 288 295 294 289 292 nan nan nan nan nan nan nan nan nan nan nan nan 289 nan nan nan nan nan nan nan nan nan nan nan nan nan nan nan nan nan nan nan nan nan nan nan nan nan nan nan nan nan nan nan nan nan nan nan nan nan nan nan nan
274 275 274 279 283 283 284 287 288 288 289 290 291 292 294 294 291 290 284 281 282 282 281 281 283 284 286 nan nan nan nan nan nan nan nan nan nan nan nan nan nan nan nan nan nan nan nan nan nan nan nan nan nan nan nan nan nan nan nan nan nan nan nan nan nan nan nan nan nan nan nan nan nan nan nan nan nan nan nan nan nan nan nan nan nan
268 270 277 283 284 284 284 286 287 287 289 290 290 292 294 295 294 293 292 292 290 nan nan nan nan nan nan nan nan nan nan nan nan nan nan nan nan nan nan nan nan nan nan 285 nan nan nan nan nan nan nan nan nan nan nan nan nan nan nan nan nan nan nan nan nan nan nan nan nan nan nan nan nan nan nan nan nan nan nan nan nan nan nan nan nan
267 274 281 281 281 282 283 284 285 286 289 290 291 293 294 295 296 296 296 nan nan nan nan nan nan nan nan nan nan nan nan nan nan nan nan nan nan nan nan nan nan nan nan nan nan nan nan nan nan nan nan nan nan nan nan nan nan nan nan nan nan nan nan nan nan nan nan nan nan nan nan nan nan nan nan nan nan nan nan nan nan nan nan nan nan
270 273 276 278 279 280 281 283 284 287 288 290 291 292 293 295 296 297 297 nan nan nan nan nan nan nan nan nan nan nan nan nan nan nan nan nan nan nan nan nan nan nan nan nan nan nan nan nan nan nan nan nan nan nan nan nan nan nan nan nan nan nan nan nan nan nan nan nan nan nan nan nan nan nan nan nan nan nan nan nan nan nan nan nan nan
271 273 275 276 278 280 282 283 285 285 286 288 290 290 292 293 295 298 299 nan nan 297 nan nan nan nan nan nan nan nan nan nan nan nan nan nan nan nan nan nan nan nan nan nan nan nan nan nan nan nan nan nan nan nan nan nan nan nan nan nan nan nan nan nan nan nan nan nan nan nan nan nan nan nan nan nan nan nan nan nan nan nan nan nan nan
273 274 276 278 280 281 283 284 282 283 286 287 288 290 293 295 297 299 nan 299 298 297 nan nan nan nan nan nan nan nan nan nan nan nan nan nan nan nan nan nan nan 297 nan nan nan nan nan nan nan nan nan nan nan nan nan nan nan nan nan nan nan nan nan nan nan nan nan nan nan nan nan nan nan nan nan nan nan nan nan nan nan nan nan nan nan
267 266 269 275 281 283 283 283 285 288 288 290 292 294 295 297 298 297 298 297 297 297 nan nan nan nan nan nan nan nan nan nan nan nan nan nan nan nan nan nan nan nan nan nan nan nan nan nan nan nan nan nan nan nan nan nan nan nan nan nan nan nan nan nan nan nan nan nan nan nan nan nan nan nan nan nan nan nan nan nan nan nan nan nan nan
275 278 277 278 282 281 283 284 287 288 290 291 293 294 294 295 296 296 296 297 299 298 299 nan nan nan nan nan nan nan nan nan nan nan nan nan nan nan nan nan nan nan nan nan nan nan nan nan nan nan nan nan nan nan nan nan nan nan nan nan nan nan nan nan nan nan nan nan nan nan nan nan nan nan nan nan nan nan nan nan nan nan nan nan nan
279 279 281 nan 276 281 282 285 287 289 290 290 290 292 293 294 295 296 298 298 298 298 298 299 299 298 nan nan nan nan nan nan nan nan nan nan nan nan nan nan nan nan nan nan nan nan nan nan nan nan nan nan nan nan nan nan nan nan nan nan nan nan nan nan nan nan nan nan nan nan nan nan nan nan nan nan nan nan nan nan nan nan nan nan nan
278 280 nan 281 282 284 285 287 286 287 288 289 289 289 291 292 294 295 296 296 296 296 296 296 296 297 299 nan nan nan nan nan nan nan nan nan nan nan nan nan nan nan nan nan nan nan nan nan nan nan nan nan nan nan nan nan nan nan nan nan nan nan nan nan nan nan nan nan nan nan nan nan nan nan nan nan nan nan nan nan nan nan nan nan nan
279 280 280 282 284 284 285 285 287 288 288 288 288 288 291 293 294 294 295 295 294 295 294 294 291 291 298 307 nan nan nan nan 303 306 307 nan nan nan nan nan nan nan nan nan nan nan nan nan nan nan nan nan nan nan nan nan nan nan nan nan nan nan nan nan nan nan nan nan nan nan nan nan nan nan nan nan nan nan nan nan nan nan nan nan nan
278 280 281 282 284 286 287 288 nan 287 286 286 288 291 293 293 293 295 295 294 293 293 292 292 290 293 296 nan nan nan nan nan 309 309 nan nan nan nan nan nan nan nan nan nan nan nan nan nan nan nan nan nan nan nan nan nan nan nan nan nan nan nan nan nan nan nan nan nan nan nan nan nan nan nan nan nan nan nan nan nan nan nan nan nan nan
nan nan nan 284 285 286 285 285 284 285 287 290 291 291 292 292 291 290 nan 292 292 290 289 290 291 296 nan nan nan nan nan nan nan nan nan nan nan nan nan nan nan nan nan nan nan nan nan nan nan nan nan nan nan nan nan nan nan nan nan nan nan nan nan nan nan nan nan nan nan nan nan nan nan nan nan nan nan nan nan nan nan nan nan nan nan
nan nan nan 283 284 285 286 285 285 287 nan nan nan nan nan nan 292 292 nan nan 291 291 291 292 293 297 299 300 302 nan nan nan 307 307 nan nan nan nan nan nan nan nan nan nan nan nan nan nan nan nan nan nan nan nan nan nan nan nan nan nan nan nan nan nan nan nan nan nan nan nan nan nan nan nan nan nan nan nan nan nan nan nan nan nan nan
nan 280 281 282 nan nan nan nan nan nan nan 288 nan 290 291 nan nan nan nan nan nan nan nan nan nan nan nan nan nan 299 nan nan 305 308 nan nan nan nan nan nan nan nan nan nan nan nan nan nan nan nan nan nan nan nan nan nan nan nan nan nan nan nan nan nan nan nan nan nan nan nan nan nan nan nan nan nan nan nan nan nan nan nan nan nan nan
nan nan nan nan nan nan nan nan nan nan nan nan nan nan nan nan nan nan nan nan nan nan nan nan nan nan nan nan nan nan nan nan nan nan 300 301 304 nan nan nan nan nan nan nan nan nan nan nan nan nan nan nan nan nan nan nan nan nan nan nan nan nan nan nan nan nan nan nan nan nan nan nan nan nan nan nan nan nan nan nan nan nan nan nan nan
nan nan nan nan nan nan nan nan nan nan nan nan nan nan nan nan nan nan nan nan nan nan nan nan nan nan nan nan nan nan nan nan nan nan nan nan 297 nan nan nan nan nan nan nan nan nan nan nan nan nan nan nan nan nan nan nan nan nan nan nan nan nan nan nan nan nan nan nan nan nan nan nan nan nan nan nan nan nan nan nan nan nan nan nan nan
nan nan nan nan nan nan nan nan nan nan nan nan nan nan nan nan nan nan nan nan nan nan nan nan nan nan nan nan nan nan nan nan nan nan nan nan nan nan nan nan nan nan nan nan nan nan nan nan nan nan nan nan nan nan nan nan nan nan nan nan nan nan nan nan nan nan nan nan nan nan nan nan nan nan nan nan nan nan nan nan nan nan nan nan nan
nan nan nan nan nan nan nan nan nan nan nan nan nan nan nan nan nan nan nan nan nan nan nan nan nan nan nan nan nan nan nan nan nan nan nan nan nan nan nan nan nan nan nan nan nan nan nan nan nan nan nan nan nan nan nan nan nan nan nan nan nan nan nan nan nan nan nan nan nan nan nan nan nan nan nan nan nan nan nan nan nan nan nan nan nan